This is the latest recevied weather packets stored in our database for station/object WX6HNX-14. If no packets are shown the sender has not sent any weather packets the latest 10 day(s).
| Time | Temp. | Humidity | Pressure | Rain* | Wind** | Luminosity | Snow |
|---|---|---|---|---|---|---|---|
| 1777692440 | 22.78° C | 48% | 1010.3 hPa | 0 mm | - | - | - |
| 1777692141 | 22.78° C | 48% | 1010.3 hPa | 0 mm | - | - | - |
| 1777691838 | 23.33° C | 50% | 1010.2 hPa | 0 mm | - | - | - |
| 1777691538 | 23.89° C | 51% | 1010.1 hPa | 0 mm | - | - | - |
| 1777691144 | 24.44° C | 50% | 1009.9 hPa | 0 mm | - | - | - |
| 1777690844 | 25.56° C | 49% | 1009.9 hPa | 0 mm | - | - | - |
| 1777688471 | 28.89° C | 33% | 1009.7 hPa | 0 mm | - | - | - |
| 1777688171 | 28.89° C | 34% | 1009.6 hPa | 0 mm | - | - | - |
| 1777687654 | 28.89° C | 34% | 1009.5 hPa | 0 mm | - | - | - |
| 1777687354 | 29.44° C | 34% | 1009.6 hPa | 0 mm | - | - | - |
| 1777687054 | 29.44° C | 33% | 1009.6 hPa | 0 mm | - | - | - |
| 1777686754 | 29.44° C | 32% | 1009.6 hPa | 0 mm | - | - | - |
| 1777686454 | 30° C | 33% | 1009.6 hPa | 0 mm | - | - | - |
| 1777685554 | 30° C | 32% | 1009.4 hPa | 0 mm | - | - | - |
| 1777685254 | 30° C | 31% | 1009.4 hPa | 0 mm | - | - | - |
| 1777684954 | 30° C | 31% | 1009.5 hPa | 0 mm | - | - | - |
| 1777684654 | 30° C | 30% | 1009.5 hPa | 0 mm | - | - | - |
| 1777684354 | 30.56° C | 31% | 1009.4 hPa | 0 mm | - | - | - |
| 1777683601 | 30.56° C | 30% | 1009.5 hPa | 0 mm | - | - | - |
| 1777683301 | 30.56° C | 30% | 1009.4 hPa | 0 mm | - | - | - |
| 1777683001 | 30.56° C | 30% | 1009.4 hPa | 0 mm | - | - | - |
| 1777682401 | 30.56° C | 29% | 1009.5 hPa | 0 mm | - | - | - |
| 1777682101 | 31.11° C | 30% | 1009.5 hPa | 0 mm | - | - | - |
| 1777681697 | 31.11° C | 31% | 1009.5 hPa | 0 mm | - | - | - |
| 1777681395 | 31.11° C | 30% | 1009.5 hPa | 0 mm | - | - | - |
* Rain latest hour (hover to see other rain measurements)
** Current wind speed in m/s (hover to see current wind gust speed)